Location: Beaurecueil
(43.5122°N, 5.5450°E)
Time: 01:23:23
(UTC+00:00)

Ariane Rocket - Pass Details

Date: 18 September 2020
Orbit: 760 x 769 km, 98.7° (Epoch: 26 October)

Event Time Altitude Azimuth Distance (km) Brightness Sun altitude
Exits shadow 19:49:58 17° 189° (S) 1,861 4.8 -23.2°
Maximum altitude 19:53:42 50° 260° (W) 973 3.8 -23.8°
Drops below altitude 10° 19:58:38 10° 336° (NNW) 2,312 6.2 -24.6°
Sets 20:01:02 0° 341° (NNW) 3,244 6.9 -25.0°
